ROSSMERE Weather Reports


time (UTC)temp
F
wind
direction
speed
knots
gust
knots
rain 1hr
in
rain 24hr
in
rain mn
in
humidity
%
barometer
mb
20260906203038 80 166 5.2 9.6 0.00 0.00 0.00 57 1016.8
20260906201536 80 133 3.5 7.8 0.00 0.00 0.00 57 1016.8
20260906200034 80 88 0.9 6.1 0.00 0.00 0.00 56 1016.8
20260906194533 78 204 4.3 7.8 0.00 0.00 0.00 59 1017.0
20260906193029 79 263 1.7 5.2 0.00 0.00 0.00 58 1017.0
20260906191533 77 194 2.6 5.2 0.00 0.00 0.00 60 1017.2
20260906190028 77 248 4.3 8.7 0.00 0.00 0.00 62 1017.4
20260906184519 78 292 0.0 9.6 0.00 0.00 0.00 60 1017.5
20260906183016 76 180 3.5 7.0 0.00 0.00 0.00 61 1017.8
20260906181526 76 208 2.6 6.1 0.00 0.00 0.00 62 1017.8
20260906180008 75 185 2.6 7.8 0.00 0.00 0.00 64 1018.1
20260906174506 74 192 6.1 8.7 0.00 0.00 0.00 66 1018.2
20260906173006 74 190 2.6 8.7 0.00 0.00 0.00 65 1018.5
20260906171503 73 188 0.0 3.5 0.00 0.00 0.00 65 1018.8
20260906164612 72 210 1.7 6.1 0.00 0.00 0.00 67 1019.0
20260906163056 72 161 0.9 5.2 0.00 0.00 0.00 67 1019.1
20260906161554 71 194 1.7 6.1 0.00 0.00 0.00 68 1019.2
20260906160053 71 193 1.7 4.3 0.00 0.00 0.00 68 1019.2
20260906154556 70 75 1.7 5.2 0.00 0.00 0.00 69 1019.2
20260906153048 69 164 4.3 7.8 0.00 0.00 0.00 70 1019.4
20260906151545 69 150 3.5 7.0 0.00 0.00 0.00 70 1019.5
20260906150046 69 163 0.9 5.2 0.00 0.00 0.00 73 1019.5
20260906144541 67 126 1.7 6.1 0.00 0.00 0.00 75 1019.6
20260906143048 67 173 0.9 3.5 0.00 0.00 0.00 79 1019.5
20260906141533 64 157 0.0 3.5 0.00 0.00 0.00 86 1019.5
20260906140041 61 309 0.0 0.0 0.00 0.00 0.00 92 1019.7
20260906134526 60 65 0.0 0.0 0.00 0.00 0.00 94 1019.6
20260906133023 58 65 0.0 0.9 0.00 0.00 0.00 97 1019.6
20260906131523 56 65 0.0 0.9 0.00 0.00 0.00 99 1019.6
20260906130036 53 65 0.0 0.0 0.00 0.00 0.00 99 1019.8
20260906124520 51 65 0.0 1.7 0.00 0.00 0.00 99 1019.8
20260906123022 48 65 0.0 1.7 0.00 0.00 0.00 99 1019.5
20260906121516 47 65 0.0 0.0 0.00 0.00 0.00 98 1019.3
20260906120016 47 66 0.0 1.7 0.00 0.00 0.00 98 1019.2
20260906114515 47 65 0.0 3.5 0.00 0.00 0.00 98 1019.2
20260906113013 47 65 0.9 4.3 0.00 0.00 0.00 97 1019.2
20260906111519 47 63 0.9 1.7 0.00 0.00 0.00 98 1018.9
20260906110013 48 63 0.0 2.6 0.00 0.00 0.00 98 1018.8
20260906104513 48 63 0.0 0.0 0.00 0.00 0.00 97 1018.8
20260906103008 48 63 0.0 0.0 0.00 0.00 0.00 98 1018.9
20260906101506 48 63 2.6 3.5 0.00 0.00 0.00 98 1019.0
20260906100004 49 69 1.7 2.6 0.00 0.00 0.00 98 1018.8
20260906094502 49 70 0.0 0.0 0.00 0.00 0.00 98 1018.6
20260906093000 49 69 0.0 1.7 0.00 0.00 0.00 96 1018.7
20260906091559 49 70 0.0 1.7 0.00 0.00 0.00 97 1018.6
20260906090113 50 69 0.0 0.0 0.00 0.00 0.00 97 1018.6
20260906084555 50 69 0.0 1.7 0.00 0.00 0.00 97 1018.5
20260906083055 50 70 0.0 2.6 0.00 0.00 0.00 97 1018.5
20260906081555 50 132 0.0 1.7 0.00 0.00 0.00 96 1018.6
20260906080052 51 132 0.0 0.0 0.00 0.00 0.00 96 1018.6
20260906074550 51 132 0.0 0.0 0.00 0.00 0.00 96 1018.7
20260906073049 51 132 0.0 0.0 0.00 0.00 0.00 97 1019.0
20260906071558 51 134 0.9 2.6 0.00 0.00 0.00 96 1018.9
20260906070046 52 137 0.0 0.0 0.00 0.00 0.00 95 1019.0
20260906064543 53 137 0.0 0.0 0.00 0.00 0.00 96 1018.7
20260906063041 53 137 0.0 0.0 0.00 0.00 0.00 95 1018.6
20260906061538 54 137 0.0 0.0 0.00 0.00 0.00 95 1018.4
20260906060035 54 137 0.0 0.0 0.00 0.00 0.00 95 1018.5
20260906054535 55 137 0.0 0.0 0.00 0.00 0.00 94 1018.3
20260906053037 55 137 0.0 0.0 0.00 0.00 0.00 94 1018.2
20260906051533 55 137 0.0 0.0 0.00 0.00 0.00 93 1018.1
20260906050048 56 137 0.0 0.0 0.00 0.00 0.00 93 1018.2
20260906044525 57 138 0.0 1.7 0.00 0.00 0.00 92 1018.4
20260906043022 58 138 0.0 0.0 0.00 0.00 0.00 91 1018.2
20260906041520 59 138 0.0 0.0 0.00 0.00 0.00 91 1018.2
20260906040017 59 138 0.0 0.9 0.00 0.00 0.00 90 1018.2
20260906034518 60 138 0.0 0.0 0.00 0.00 0.00 88 1018.2
20260906033021 62 138 0.9 2.6 0.00 0.00 0.00 85 1018.1
20260906031519 64 170 0.0 0.0 0.00 0.00 0.00 82 1017.8
20260906030014 65 170 0.0 2.6 0.00 0.00 0.00 81 1017.5
20260906024514 66 168 0.0 2.6 0.00 0.00 0.00 80 1017.2
20260906023016 66 163 0.0 2.6 0.00 0.00 0.00 78 1017.1
20260906021513 67 160 0.9 3.5 0.00 0.00 0.00 77 1017.1
20260906020013 67 175 0.9 4.3 0.00 0.00 0.00 77 1017.2
20260906014513 68 156 0.9 5.2 0.00 0.00 0.00 75 1017.1
20260906013013 68 142 2.6 5.2 0.00 0.00 0.00 75 1017.0
20260906011512 69 149 3.5 6.1 0.00 0.00 0.00 74 1016.9
20260906010011 69 152 1.7 7.0 0.00 0.00 0.00 74 1016.8
20260906004511 70 155 3.5 7.0 0.00 0.00 0.00 72 1016.7
20260906003011 71 150 1.7 7.8 0.00 0.00 0.00 71 1016.5
20260906001510 72 136 4.3 7.8 0.00 0.00 0.00 69 1016.5
20260906000010 73 129 2.6 9.6 0.00 0.00 0.00 67 1016.5
20260905234510 74 173 3.5 7.0 0.00 0.00 0.00 65 1016.4
20260905233020 76 122 1.7 5.2 0.00 0.00 0.00 63 1016.2
20260905231508 76 160 2.6 5.2 0.00 0.00 0.00 61 1016.2
20260905230007 77 177 0.9 3.5 0.00 0.00 0.00 60 1016.4
20260905224508 76 170 0.0 3.5 0.00 0.00 0.00 61 1016.5
20260905223005 77 153 2.6 5.2 0.00 0.00 0.00 59 1016.5
20260905221502 77 273 0.0 0.0 0.00 0.00 0.00 60 1016.7
20260905220002 75 273 0.9 3.5 0.00 0.00 0.00 62 1016.7
20260905214609 76 279 2.6 3.5 0.00 0.00 0.00 60 1016.6
20260905213109 76 286 2.6 6.1 0.00 0.00 0.00 60 1016.7
20260905211601 76 303 1.7 3.5 0.00 0.00 0.00 61 1016.8
20260905210058 76 308 0.0 5.2 0.00 0.00 0.00 58 1016.9
20260905204557 75 278 2.6 5.2 0.00 0.00 0.00 60 1016.9